Content
SEND FEEDBACK

Daily
Averages
Monthly
Summary
United States of America

BRIAN HEAD, UTAH


Home > North America > United States > Utah
Elevation: 10012 feet     Latitude: 37 36N     Longitude: 112 51W

WEATHER
 
SELECT A DAY
Number of Records: 185,504;   Date Range: 1/1/95 - 10/24/14
 
SHARE

PRINT THIS DATA

[ ← Previous Day ]
WEATHER ALMANAC - JANUARY 31, 2013
[ Next Day → ]
[ °C ]   °F
Weather ElementAverageHighLow
Temperature31.7 °F46.9 °F (1:53 pm)19 °F (7:53 am)
Dewpoint22.1 °F27 °F (12:53 pm)16 °F (7:53 am)
Humidity70.1 %92 % (1:53 am)41 % (1:53 pm)
Barometer30.32 in30.40 in (7:53 am)30.26 in (4:53 pm)
Wind Speed4.1 mph11.5 mph (1:53 pm)
Weather ElementAverage
Visibility10 mi
Wind DirectionESE (104.3 °)

Weather ElementTotal
Precipitation---
Heating Degree Days32.1 (Base 65)
Averaged from 23 records on January 31, 2013
WEATHER CONDITIONS BREAKOUT
WIND DIRECTION BREAKOUT
WEATHER BY HOUR - JANUARY 31, 2013
[ °C ]   °F
Local TimeTemperatureDewpointHumidityBarometerVisibilityWind DirectionWind SpeedGust SpeedPrecipitationEventsConditions
1:53 AM21.0 °F19.0 °F92 %30.30 in10.0 miCalmClear
2:53 AM21.0 °F18.0 °F88 %30.31 in10.0 miENE (60°)6.9 mphClear
3:53 AM19.9 °F17.1 °F89 %30.30 in10.0 miCalmClear
4:53 AM21.0 °F18.0 °F88 %30.30 in10.0 miCalmClear
5:53 AM19.9 °F17.1 °F89 %30.35 in10.0 miCalmClear
6:53 AM21.0 °F17.1 °F85 %30.37 in10.0 miCalmClear
7:53 AM19.0 °F16.0 °F88 %30.40 in9.0 miCalmClear
8:53 AM25.0 °F21.0 °F85 %30.40 in10.0 miNE (50°)6.9 mphClear
9:53 AM30.9 °F24.1 °F76 %30.39 in10.0 miNorth (360°)5.8 mphClear
10:53 AM36.0 °F24.1 °F62 %30.37 in10.0 miNNE (20°)8.1 mphClear
11:53 AM37.9 °F26.1 °F62 %30.34 in10.0 miEast (80°)3.5 mphClear
12:53 PM45.0 °F27.0 °F49 %30.29 in10.0 miNorth (10°)6.9 mphClear
1:53 PM46.9 °F24.1 °F41 %30.27 in10.0 miNNW (340°)11.5 mphClear
2:53 PM46.9 °F25.0 °F42 %30.27 in10.0 miNNW (340°)4.6 mphClear
3:53 PM46.9 °F26.1 °F44 %30.27 in10.0 miNorth (350°)6.9 mphClear
4:53 PM46.0 °F26.1 °F46 %30.26 in10.0 miCalmClear
5:53 PM39.0 °F25.0 °F57 %30.29 in10.0 miCalmClear
6:53 PM34.0 °F26.1 °F73 %30.32 in10.0 miSE (130°)6.9 mphClear
7:53 PM33.1 °F25.0 °F72 %30.33 in10.0 miSE (140°)6.9 mphClear
8:53 PM33.1 °F23.0 °F66 %30.31 in10.0 miSSE (150°)8.1 mphClear
9:53 PM28.9 °F21.9 °F75 %30.31 in10.0 miCalmClear
10:53 PM28.9 °F21.0 °F72 %30.29 in10.0 miSSE (160°)5.8 mphClear
11:53 PM28.9 °F21.0 °F72 %30.27 in10.0 miSSW (210°)4.6 mphClear
Hourly data recorded from KCDC, located miles away from Brian Head, Utah







STORIES FROM OUR PARTNERS